This is the latest recevied weather packets stored in our database for station/object N6WDO. If no packets are shown the sender has not sent any weather packets the latest 1 day(s).
| Time | Temp. | Humidity | Pressure | Rain* | Wind** | Luminosity | Snow |
|---|---|---|---|---|---|---|---|
| 1778042138 | 8.89° C | 94% | 1018.4 hPa | 0 mm | - | 0 W/m² | - |
| 1778041535 | 8.89° C | 94% | 1018.2 hPa | 0 mm | - | 0 W/m² | - |
| 1778041233 | 8.89° C | 95% | 1018.3 hPa | 0 mm | - | 0 W/m² | - |
| 1778040021 | 8.89° C | 92% | 1017.8 hPa | 0 mm | - | 0 W/m² | - |
| 1778039718 | 8.89° C | 92% | 1017.9 hPa | 0 mm | - | 0 W/m² | - |
| 1778039415 | 9.44° C | 91% | 1017.7 hPa | 0 mm | - | 0 W/m² | - |
| 1778038507 | 9.44° C | 90% | 1017.4 hPa | 0 mm | - | 0 W/m² | - |
| 1778037901 | 9.44° C | 90% | 1017.5 hPa | 0 mm | - | 0 W/m² | - |
| 1778037597 | 9.44° C | 91% | 1017.5 hPa | 0 mm | - | 0 W/m² | - |
| 1778037295 | 9.44° C | 90% | 1017.2 hPa | 0 mm | - | 0 W/m² | - |
| 1778036992 | 10° C | 90% | 1017.5 hPa | 0 mm | - | 0 W/m² | - |
| 1778036690 | 10° C | 89% | 1017.3 hPa | 0 mm | - | 0 W/m² | - |
| 1778036386 | 10° C | 89% | 1017.3 hPa | 0 mm | - | 1 W/m² | - |
| 1778035780 | 10.56° C | 88% | 1017.1 hPa | 0 mm | - | 3 W/m² | - |
| 1778035477 | 10.56° C | 87% | 1016.9 hPa | 0 mm | - | 5 W/m² | - |
| 1778035172 | 11.11° C | 85% | 1016.9 hPa | 0 mm | - | 7 W/m² | - |
| 1778034870 | 11.67° C | 85% | 1016.7 hPa | 0 mm | - | 9 W/m² | - |
| 1778034567 | 11.67° C | 84% | 1016.9 hPa | 0 mm | - | 12 W/m² | - |
| 1778034264 | 12.22° C | 81% | 1016.7 hPa | 0 mm | - | 14 W/m² | - |
| 1778033962 | 12.22° C | 82% | 1016.6 hPa | 0 mm | - | 17 W/m² | - |
| 1778033659 | 12.78° C | 83% | 1016.9 hPa | 0 mm | - | 19 W/m² | - |
| 1778033356 | 13.33° C | 82% | 1016.7 hPa | 0 mm | - | 20 W/m² | - |
| 1778033054 | 13.33° C | 76% | 1016.7 hPa | 0 mm | - | 22 W/m² | - |
| 1778032448 | 13.89° C | 76% | 1016.6 hPa | 0 mm | - | 32 W/m² | - |
| 1778032145 | 13.89° C | 75% | 1016.8 hPa | 0 mm | - | 36 W/m² | - |
* Rain latest hour (hover to see other rain measurements)
** Current wind speed in m/s (hover to see current wind gust speed)